Our Location

356 (Felixstowe) Squadron SHQ,
Carr Road,
Felixstowe,
IP11 3RX

Tel: 01394 673419 Mon/Wed Evenings

email: This email address is being protected from spambots. You need JavaScript enabled to view it.

Air Cadet Magazine

Fx Cdt Futurepilot B&W

Absence Form

Cdt Hawk Pilot

Aviation Weather - Wattisham

[source: ADDS]
METAR
EGUW 272150Z AUTO 01008KT 3400 RA FEW002/// BKN050/// 14/13 Q1002 =
TAF
TAF EGUW 271642Z 2718/2724 08008KT 9999 BKN045 BECMG 2719/2722 5000 RA BKN005 PROB40 TEMPO 2720/2724 3000 +RA BKN003 =
You are here: Home